星链-2749 (STARLINK-2749 )

导读 | 豆包AI

STARLINK-2749是美国SpaceX公司星链星座项目中的一颗低轨卫星互联网卫星,于2021年5月9日发射入轨。星链项目旨在通过大规模低轨卫星星座,为全球偏远及基础设施薄弱区域提供高速低延迟的宽带互联网接入服务。该卫星运行在近地轨道,属于星链持续扩张的卫星网络一员,助力实现全球覆盖的通信目标,但星链大规模部署也引发了对太空拥堵和天文观测干扰的争议。

Basic Information
目录编号:
48429
目录名称:
STARLINK-2749
国际标识:
2021-040B
轨道中心:
EARTH
卫星名称:
星链-2749
卫星全名:
星链-2749 (STARLINK-2749 )
卫星状态:
已陨落 最后检测时间 2025-01-10
发射日期:
2021-05-09 UTC
国别 :
美国 (US)
星等 :
--
Orbit Information
数据来源 国际轨道数据
星历时间: 2025-01-10T18:14:40+0800
轨道信息已过期475天
半长轴: 6566.403km
偏心率: 0.000245
轨道倾角: 53.030°
近地点辐角 266.242°
升交点赤经 237.455°
平近点角 220.302°
近地点: 186.659km
远地点: 189.877km
周期: 88.257分钟
每日圈数: 16.315919
Detailed Information
固有亮度:
5
最大亮度:
2.5
卫星平台:
Starlink V1.0
覆盖范围:
全球
运营商:
太空探索技术公司
运营商所在国:
美国
制造商(研发单位):
太空探索技术公司
制造商所在国:
美国
使用方式:
暂无
Satellite Introduction
星链(Starlink)计划是由太空探索技术公司(SpaceX)提出的一个巨型低轨卫星互联网星座项目,计划在2019年至2024年间在太空搭建由约1.2万颗卫星组成的“星链”网络,其中1584颗将部署在地球上空550千米处的近地轨道,并从2020年开始工作。该卫星仍在工作。